TimeCST,TemperatureF,Dew PointF,Humidity,Sea Level PressureIn,VisibilityMPH,Wind Direction,Wind SpeedMPH,Gust SpeedMPH,PrecipitationIn,Events,Conditions,WindDirDegrees,DateUTC
12:42 AM,19.9,16.0,85,30.15,1.8,West,3.5,-,0.00,Snow,Light Snow,280,2014-02-09 06:42:00
12:47 AM,19.9,16.0,85,30.15,0.8,West,3.5,-,0.00,Snow,Light Snow,270,2014-02-09 06:47:00
12:54 AM,19.9,16.0,85,30.18,0.8,West,3.5,-,0.01,Snow,Light Snow,270,2014-02-09 06:54:00
1:05 AM,19.9,17.1,89,30.14,0.5,WSW,3.5,-,0.01,Fog-Snow,Snow,240,2014-02-09 07:05:00
1:12 AM,19.9,17.1,89,30.13,0.5,WSW,3.5,-,0.02,Fog-Snow,Snow,250,2014-02-09 07:12:00
1:35 AM,19.9,17.1,89,30.16,1.0,WNW,4.6,-,0.04,Snow,Light Snow,290,2014-02-09 07:35:00
1:46 AM,19.9,17.1,89,30.16,1.2,WNW,4.6,-,0.04,Snow,Light Snow,290,2014-02-09 07:46:00
1:54 AM,19.9,17.1,89,30.17,1.0,Calm,Calm,-,0.05,Snow,Light Snow,0,2014-02-09 07:54:00
2:04 AM,19.9,17.1,89,30.13,0.8,Calm,Calm,-,0.00,Snow,Light Snow,0,2014-02-09 08:04:00
2:18 AM,19.9,16.0,85,30.14,1.2,Calm,Calm,-,0.01,Snow,Light Snow,0,2014-02-09 08:18:00
2:23 AM,19.9,16.0,85,30.13,2.0,Calm,Calm,-,0.02,Snow,Light Snow,0,2014-02-09 08:23:00
2:29 AM,19.9,16.0,85,30.13,3.0,Calm,Calm,-,0.02,Snow,Light Snow,0,2014-02-09 08:29:00
2:54 AM,19.9,16.0,85,30.19,6.0,WNW,5.8,-,0.02,,Overcast,290,2014-02-09 08:54:00
3:54 AM,19.9,15.1,81,30.20,7.0,NNW,4.6,-,N/A,,Overcast,330,2014-02-09 09:54:00
4:54 AM,19.0,14.0,81,30.20,8.0,NW,4.6,-,N/A,,Overcast,320,2014-02-09 10:54:00
5:02 AM,19.0,12.9,77,30.18,8.0,NW,4.6,-,N/A,,Overcast,320,2014-02-09 11:02:00
5:54 AM,18.0,12.0,78,30.21,8.0,North,9.2,-,N/A,,Overcast,350,2014-02-09 11:54:00
6:08 AM,17.1,10.9,77,30.18,9.0,NNW,6.9,-,N/A,,Overcast,340,2014-02-09 12:08:00
6:54 AM,15.1,8.1,74,30.22,10.0,NNW,5.8,-,N/A,,Mostly Cloudy,330,2014-02-09 12:54:00
7:04 AM,15.1,8.1,74,30.18,9.0,NNW,3.5,-,N/A,,Scattered Clouds,340,2014-02-09 13:04:00
7:54 AM,14.0,8.1,77,30.25,7.0,NW,4.6,-,N/A,,Clear,310,2014-02-09 13:54:00
8:54 AM,15.1,7.0,70,30.26,8.0,NW,8.1,-,N/A,,Clear,310,2014-02-09 14:54:00
9:54 AM,15.1,7.0,70,30.27,9.0,NW,6.9,-,N/A,,Clear,320,2014-02-09 15:54:00
10:54 AM,16.0,6.1,65,30.27,10.0,NW,10.4,-,N/A,,Clear,310,2014-02-09 16:54:00
11:54 AM,17.1,6.1,62,30.27,10.0,WNW,9.2,-,N/A,,Clear,300,2014-02-09 17:54:00
12:54 PM,19.0,6.1,57,30.25,10.0,NW,9.2,-,N/A,,Clear,310,2014-02-09 18:54:00
1:54 PM,18.0,6.1,60,30.25,10.0,WNW,9.2,-,N/A,,Clear,300,2014-02-09 19:54:00
2:54 PM,18.0,6.1,60,30.28,10.0,NW,6.9,-,N/A,,Mostly Cloudy,310,2014-02-09 20:54:00
3:54 PM,18.0,6.1,60,30.30,10.0,WNW,9.2,-,N/A,,Clear,290,2014-02-09 21:54:00
4:54 PM,16.0,5.0,62,30.32,10.0,WNW,9.2,-,N/A,,Clear,290,2014-02-09 22:54:00
5:54 PM,14.0,5.0,67,30.32,9.0,NW,8.1,-,N/A,,Clear,310,2014-02-09 23:54:00
6:54 PM,10.9,3.0,70,30.35,9.0,WNW,8.1,-,N/A,,Clear,300,2014-02-10 00:54:00
7:54 PM,9.0,1.0,70,30.36,9.0,NW,9.2,-,N/A,,Clear,310,2014-02-10 01:54:00
8:54 PM,6.1,-2.0,69,30.37,9.0,WNW,6.9,-,N/A,,Clear,300,2014-02-10 02:54:00
9:54 PM,3.9,-4.0,70,30.39,10.0,WNW,5.8,-,N/A,,Clear,300,2014-02-10 03:54:00
10:54 PM,1.9,-6.0,69,30.40,10.0,WNW,3.5,-,N/A,,Clear,300,2014-02-10 04:54:00
11:54 PM,-0.0,-8.0,69,30.42,10.0,Variable,3.5,-,N/A,,Clear,0,2014-02-10 05:54:00